Weather History for LHSN - February, 2013

Change the Weather History Date:

Monday, February 4, 2013

  Actual Average (LHBP) Record (LHBP)
Temperature  
Mean Temperature 30 °F -  
Max Temperature 37 °F 39 °F 53 °F (2004)
Min Temperature 23 °F 23 °F 12 °F (1997)
Degree Days  
Heating Degree Days 35    
Moisture  
Dew Point 27 °F    
Average Humidity 81    
Maximum Humidity 93    
Minimum Humidity 70    
Precipitation  
Precipitation 0.00 in - - ()
Sea Level Pressure  
Sea Level Pressure 29.94 in    
Wind  
Wind Speed 7 mph ()    
Max Wind Speed 11 mph    
Max Gust Speed -    
Visibility 5.7 miles    
Events Rain , Snow    
Averages and records for this station are not official NWS values.
T = Trace of Precipitation, MM = Missing Value Source: Averaged Metar Reports

Daily Weather History Graph

Daily Weather History Graph

Search for Another Location

Airport or City:

Trip Planner

Search our weather history database for the weather conditions in past years. The results will help you decide how hot, cold, wet, or windy it might be!

Date:

Astronomy

Feb. 04, 2013 Rise Set
Actual Time 7:00 AM CET 4:46 PM CET
Civil Twilight 6:28 AM CET 5:18 PM CET
Nautical Twilight 5:51 AM CET 5:54 PM CET
Astronomical Twilight 5:16 AM CET 6:30 PM CET
Moon 1:19 AM CET (2/4) 10:50 AM CET (2/4)
Length of Visible Light 10h 50m
Length of Day
9h 45m
Last Quarter, 40% of the Moon is Illuminated
Feb 4
Last Quarter
Feb 10
New
Feb 17
First Quarter
Feb 25
Full
Mar 4
Last Quarter

Hourly Weather History & Observations

Time (CET) Temp. Windchill Dew Point Humidity Pressure Visibility Wind Dir Wind Speed Gust Speed Precip Events Conditions
12:45 AM 28.4 °F 23.4 °F 24.8 °F 86% 29.95 in - West 4.5 mph - N/A   Clear
1:15 AM 26.6 °F 19.2 °F 23.0 °F 86% 29.95 in - West 6.7 mph - N/A   Clear
1:45 AM 26.6 °F 19.2 °F 23.0 °F 86% 29.95 in - West 6.7 mph - N/A   Clear
2:15 AM 26.6 °F 19.2 °F 23.0 °F 86% 29.95 in - West 6.7 mph - N/A   Clear
2:45 AM 26.6 °F 17.7 °F 23.0 °F 86% 29.95 in - West 8.9 mph - N/A   Clear
3:15 AM 26.6 °F 19.2 °F 23.0 °F 86% 29.95 in - West 6.7 mph - N/A   Clear
3:45 AM 26.6 °F 19.2 °F 23.0 °F 86% 29.92 in - West 6.7 mph - N/A   Clear
4:15 AM 24.8 °F 17.1 °F 21.2 °F 86% 29.92 in - WSW 6.7 mph - N/A   Clear
4:45 AM 24.8 °F 17.1 °F 21.2 °F 86% 29.95 in - WSW 6.7 mph - N/A   Clear
5:15 AM 23.0 °F 14.9 °F 21.2 °F 93% 29.95 in - WSW 6.7 mph - N/A   Clear
5:45 AM - - - N/A% - 6.2 mi SW 11.2 mph - N/A   Overcast
6:15 AM 26.6 °F 19.2 °F 23.0 °F 86% 29.95 in - SW 6.7 mph - N/A   Clear
6:45 AM 28.4 °F 21.4 °F 24.8 °F 86% 29.95 in - SW 6.7 mph - N/A   Clear
7:15 AM 28.4 °F 23.4 °F 24.8 °F 86% 29.95 in - SW 4.5 mph - N/A   Clear
7:45 AM 30.2 °F 25.5 °F 26.6 °F 86% 29.98 in - SW 4.5 mph - N/A   Clear
8:15 AM 30.2 °F 22.1 °F 26.6 °F 86% 29.98 in - WSW 8.9 mph - N/A   Clear
8:45 AM - - - N/A% - 6.2 mi SW 11.2 mph - N/A   Overcast
9:15 AM 32.0 °F 24.3 °F 26.6 °F 80% 29.98 in - SW 8.9 mph - N/A   Clear
9:45 AM 32.0 °F 23.2 °F 26.6 °F 80% 29.98 in - SW 11.2 mph - N/A   Clear
10:15 AM 32.0 °F 24.3 °F 26.6 °F 80% 29.98 in - SSW 8.9 mph - N/A   Clear
11:45 AM - - - N/A% - 6.2 mi SW 11.2 mph - N/A   Overcast
12:15 PM 35.6 °F 28.7 °F 28.4 °F 75% 29.95 in - SSW 8.9 mph - N/A   Clear
12:45 PM 35.6 °F 28.7 °F 28.4 °F 75% 29.95 in - SSW 8.9 mph - N/A   Clear
1:15 PM 35.6 °F 28.7 °F 28.4 °F 75% 29.95 in - SSW 8.9 mph - N/A   Clear
1:45 PM 35.6 °F 28.7 °F 28.4 °F 75% 29.92 in - SSW 8.9 mph - N/A   Clear
2:15 PM 35.6 °F 28.7 °F 28.4 °F 75% 29.92 in - SW 8.9 mph - N/A   Clear
2:45 PM 35.6 °F 27.7 °F 28.4 °F 75% 29.92 in 6.2 mi SSW 11.2 mph - N/A   Mostly Cloudy
3:15 PM 37.4 °F 30.9 °F 28.4 °F 70% 29.92 in 6.2 mi SW 8.9 mph - N/A   Mostly Cloudy
3:45 PM 35.6 °F 28.7 °F 28.4 °F 75% 29.92 in 6.2 mi SW 8.9 mph - N/A   Mostly Cloudy
4:15 PM 35.6 °F 27.7 °F 28.4 °F 75% 29.92 in 6.2 mi SW 11.2 mph - N/A   Mostly Cloudy
4:45 PM 35.6 °F 28.7 °F 28.4 °F 75% 29.92 in 6.2 mi SW 8.9 mph - N/A   Mostly Cloudy
5:15 PM 35.6 °F 30.0 °F 28.4 °F 75% 29.92 in 6.2 mi SSW 6.7 mph - N/A   Mostly Cloudy
5:45 PM - - - N/A% - 6.2 mi SW 8.9 mph - N/A   Overcast
6:15 PM 35.6 °F 28.7 °F 28.4 °F 75% 29.95 in 6.2 mi SSW 8.9 mph - N/A   Overcast
6:45 PM 35.6 °F 27.7 °F 30.2 °F 81% 29.95 in 6.2 mi SSW 11.2 mph - N/A   Overcast
7:15 PM 35.6 °F 30.0 °F 30.2 °F 81% 29.95 in - SSW 6.7 mph - N/A   Clear
7:45 PM 35.6 °F 28.7 °F 30.2 °F 81% 29.95 in - SSW 8.9 mph - N/A   Clear
8:15 PM 35.6 °F 28.7 °F 30.2 °F 81% 29.95 in 6.2 mi South 8.9 mph - N/A Rain , Snow Light Snow
8:45 PM - - - N/A% - 3.1 mi SSW 8.9 mph - N/A Rain Light Rain
9:15 PM 35.6 °F 28.7 °F 30.2 °F 81% 29.95 in 6.2 mi SW 8.9 mph - N/A   Overcast
9:45 PM 35.6 °F 27.7 °F 30.2 °F 81% 29.95 in 6.2 mi SSW 11.2 mph - N/A   Mostly Cloudy
10:15 PM 35.6 °F 28.7 °F 30.2 °F 81% 29.95 in 6.2 mi SSW 8.9 mph - N/A   Mostly Cloudy
10:45 PM 35.6 °F 28.7 °F 30.2 °F 81% 29.92 in - SSW 8.9 mph - N/A   Clear
11:15 PM 35.6 °F 28.7 °F 28.4 °F 75% 29.92 in - SSW 8.9 mph - N/A   Clear
11:45 PM - - - N/A% - 0.3 mi North - - N/A Rain Light Rain